• In Deutschland
  • Länderverzeichnis
  • Für 7 Tage
  • Wassertemperatur
  • Satellitenkarten
  • Wetterkarte
  • Widgets
  • user-avatar
    Anmelden

    Stündliche Wetter Bobo-Dioulasso

    Heute, 26 Mai, Samstag

    Zeit Temperatur Niederschläge Wind Luftdruck Luftfeuchtigkeit
    00:00 +29°C° 3 mm 4 m/S 721 mmHg 68%
    01:00 +29°C° 0,3 mm 3 m/S 721 mmHg 68%
    02:00 +29°C° 0,3 mm 2 m/S 721 mmHg 68%
    03:00 +29°C° 0,3 mm 1 m/S 721 mmHg 68%
    04:00 +28°C° 0,1 mm 2 m/S 721 mmHg 70%
    05:00 +28°C° 0,1 mm 3 m/S 721 mmHg 72%
    06:00 +28°C° 0,1 mm 4 m/S 721 mmHg 74%
    07:00 +29°C° 0 mm 4 m/S 722 mmHg 69%
    08:00 +30°C° 0 mm 4 m/S 722 mmHg 65%
    09:00 +32°C° 0 mm 4 m/S 723 mmHg 60%
    10:00 +34°C° 0 mm 4 m/S 722 mmHg 54%
    11:00 +36°C° 0 mm 3 m/S 722 mmHg 48%
    12:00 +37°C° 0 mm 3 m/S 722 mmHg 42%
    13:00 +38°C° 0 mm 3 m/S 721 mmHg 40%
    14:00 +39°C° 0 mm 3 m/S 721 mmHg 38%
    15:00 +39°C° 0 mm 3 m/S 720 mmHg 35%
    16:00 +39°C° 0 mm 3 m/S 720 mmHg 38%
    17:00 +38°C° 0 mm 3 m/S 720 mmHg 40%
    18:00 +37°C° 0 mm 3 m/S 720 mmHg 42%
    19:00 +36°C° 0 mm 3 m/S 720 mmHg 45%
    20:00 +35°C° 0 mm 3 m/S 721 mmHg 48%
    21:00 +34°C° 0 mm 3 m/S 721 mmHg 51%
    22:00 +34°C° 0,2 mm 3 m/S 722 mmHg 52%
    23:00 +33°C° 0,2 mm 3 m/S 722 mmHg 53%

    Morgen, 27 Mai, Sonntag

    Zeit Temperatur Niederschläge Wind Luftdruck Luftfeuchtigkeit
    00:00 +33°C° 0,2 mm 4 m/S 722 mmHg 54%
    01:00 +32°C° 0 mm 4 m/S 722 mmHg 58%
    02:00 +30°C° 0 mm 4 m/S 722 mmHg 62%
    03:00 +30°C° 0 mm 4 m/S 721 mmHg 66%
    04:00 +29°C° 0 mm 4 m/S 721 mmHg 69%
    05:00 +28°C° 0 mm 4 m/S 722 mmHg 72%
    06:00 +28°C° 0 mm 3 m/S 722 mmHg 75%
    07:00 +29°C° 0 mm 4 m/S 722 mmHg 71%
    08:00 +30°C° 0 mm 4 m/S 723 mmHg 68%
    09:00 +32°C° 0 mm 4 m/S 723 mmHg 64%
    10:00 +34°C° 0 mm 4 m/S 723 mmHg 57%
    11:00 +35°C° 0 mm 4 m/S 723 mmHg 51%
    12:00 +37°C° 0 mm 4 m/S 723 mmHg 44%
    13:00 +36°C° 1,8 mm 5 m/S 723 mmHg 49%
    14:00 +35°C° 1,8 mm 5 m/S 722 mmHg 53%
    15:00 +34°C° 1,8 mm 5 m/S 722 mmHg 58%
    16:00 +33°C° 3,2 mm 4 m/S 722 mmHg 64%
    17:00 +30°C° 3,2 mm 3 m/S 721 mmHg 70%
    18:00 +28°C° 3,2 mm 2 m/S 721 mmHg 76%
    19:00 +28°C° 0 mm 3 m/S 722 mmHg 76%
    20:00 +28°C° 0 mm 3 m/S 723 mmHg 77%
    21:00 +28°C° 0 mm 4 m/S 724 mmHg 77%
    22:00 +28°C° 0 mm 4 m/S 724 mmHg 77%
    23:00 +27°C° 0 mm 4 m/S 724 mmHg 77%

    übermorgen, 28 Mai, Montag

    Zeit Temperatur Niederschläge Wind Luftdruck Luftfeuchtigkeit
    00:00 +27°C° 0 mm 4 m/S 724 mmHg 77%
    01:00 +27°C° 0 mm 3 m/S 723 mmHg 77%
    02:00 +27°C° 0 mm 3 m/S 723 mmHg 78%
    03:00 +27°C° 0 mm 3 m/S 723 mmHg 78%
    04:00 +26°C° 0 mm 3 m/S 723 mmHg 78%
    05:00 +26°C° 0 mm 3 m/S 723 mmHg 79%
    06:00 +26°C° 0 mm 2 m/S 723 mmHg 79%
    07:00 +27°C° 0 mm 3 m/S 723 mmHg 75%
    08:00 +28°C° 0 mm 3 m/S 724 mmHg 70%
    09:00 +29°C° 0 mm 3 m/S 724 mmHg 65%
    10:00 +32°C° 0 mm 4 m/S 724 mmHg 60%
    11:00 +33°C° 0 mm 4 m/S 724 mmHg 55%
    12:00 +34°C° 0 mm 4 m/S 724 mmHg 50%
    13:00 +35°C° 0 mm 3 m/S 723 mmHg 48%
    14:00 +35°C° 0 mm 3 m/S 722 mmHg 46%
    15:00 +36°C° 0 mm 3 m/S 721 mmHg 44%
    16:00 +35°C° 0 mm 2 m/S 721 mmHg 45%
    17:00 +35°C° 0 mm 2 m/S 721 mmHg 46%
    18:00 +34°C° 0 mm 1 m/S 721 mmHg 47%
    19:00 +33°C° 0 mm 1 m/S 722 mmHg 49%
    20:00 +32°C° 0 mm 1 m/S 723 mmHg 52%
    21:00 +31°C° 0 mm 1 m/S 723 mmHg 54%
    22:00 +31°C° 0 mm 1 m/S 723 mmHg 55%
    23:00 +31°C° 0 mm 1 m/S 723 mmHg 57%

    29 Mai, Dienstag

    Zeit Temperatur Niederschläge Wind Luftdruck Luftfeuchtigkeit
    00:00 +30°C° 0 mm 1 m/S 723 mmHg 58%
    01:00 +30°C° 0 mm 2 m/S 723 mmHg 59%
    02:00 +29°C° 0 mm 3 m/S 722 mmHg 60%
    03:00 +29°C° 0 mm 3 m/S 722 mmHg 61%
    04:00 +29°C° 0 mm 3 m/S 722 mmHg 63%
    05:00 +28°C° 0 mm 3 m/S 722 mmHg 66%
    06:00 +28°C° 0 mm 3 m/S 723 mmHg 68%
    07:00 +29°C° 0 mm 3 m/S 723 mmHg 66%
    08:00 +30°C° 0 mm 4 m/S 724 mmHg 63%
    09:00 +32°C° 0 mm 4 m/S 724 mmHg 60%
    10:00 +34°C° 0 mm 4 m/S 724 mmHg 55%
    11:00 +36°C° 0 mm 3 m/S 723 mmHg 49%
    12:00 +37°C° 0 mm 3 m/S 723 mmHg 43%
    13:00 +38°C° 0 mm 3 m/S 722 mmHg 40%
    14:00 +39°C° 0 mm 2 m/S 722 mmHg 36%
    15:00 +40°C° 0 mm 1 m/S 721 mmHg 32%
    16:00 +40°C° 0 mm 1 m/S 721 mmHg 34%
    17:00 +39°C° 0 mm 2 m/S 721 mmHg 36%
    18:00 +38°C° 0 mm 2 m/S 721 mmHg 38%
    19:00 +37°C° 0 mm 2 m/S 721 mmHg 41%
    20:00 +36°C° 0 mm 2 m/S 722 mmHg 43%
    21:00 +35°C° 0 mm 3 m/S 722 mmHg 46%
    22:00 +34°C° 0,3 mm 3 m/S 722 mmHg 50%
    23:00 +33°C° 0,3 mm 3 m/S 722 mmHg 53%

    30 Mai, Mittwoch

    Zeit Temperatur Niederschläge Wind Luftdruck Luftfeuchtigkeit
    00:00 +31°C° 0,3 mm 3 m/S 722 mmHg 56%
    01:00 +30°C° 2 mm 3 m/S 721 mmHg 63%
    02:00 +29°C° 2 mm 4 m/S 721 mmHg 70%
    03:00 +28°C° 2 mm 4 m/S 721 mmHg 76%
    04:00 +27°C° 0,4 mm 4 m/S 721 mmHg 77%
    05:00 +27°C° 0,4 mm 4 m/S 721 mmHg 78%
    06:00 +27°C° 0,4 mm 4 m/S 721 mmHg 79%
    07:00 +28°C° 0 mm 4 m/S 722 mmHg 74%
    08:00 +29°C° 0 mm 4 m/S 722 mmHg 70%
    09:00 +30°C° 0 mm 4 m/S 723 mmHg 66%
    10:00 +33°C° 0 mm 4 m/S 723 mmHg 59%
    11:00 +35°C° 0 mm 4 m/S 722 mmHg 53%
    12:00 +37°C° 0 mm 4 m/S 722 mmHg 47%
    13:00 +37°C° 0 mm 4 m/S 722 mmHg 44%
    14:00 +38°C° 0 mm 3 m/S 721 mmHg 42%
    15:00 +39°C° 0 mm 3 m/S 720 mmHg 39%
    16:00 +39°C° 0 mm 3 m/S 720 mmHg 40%
    17:00 +38°C° 0 mm 2 m/S 720 mmHg 42%
    18:00 +37°C° 0 mm 2 m/S 720 mmHg 43%
    19:00 +36°C° 0,2 mm 2 m/S 721 mmHg 46%
    20:00 +35°C° 0,2 mm 3 m/S 721 mmHg 49%
    21:00 +34°C° 0,2 mm 3 m/S 721 mmHg 52%
    22:00 +33°C° 3,3 mm 3 m/S 721 mmHg 58%
    23:00 +31°C° 3,3 mm 2 m/S 721 mmHg 63%

    31 Mai, Donnerstag

    Zeit Temperatur Niederschläge Wind Luftdruck Luftfeuchtigkeit
    00:00 +30°C° 3,3 mm 2 m/S 721 mmHg 69%
    01:00 +29°C° 2 mm 3 m/S 721 mmHg 72%
    02:00 +29°C° 2 mm 3 m/S 721 mmHg 76%
    03:00 +28°C° 2 mm 4 m/S 722 mmHg 79%
    04:00 +28°C° 0,1 mm 5 m/S 722 mmHg 79%
    05:00 +27°C° 0,1 mm 5 m/S 722 mmHg 79%
    06:00 +27°C° 0,1 mm 5 m/S 722 mmHg 79%
    07:00 +28°C° 0 mm 5 m/S 723 mmHg 77%
    08:00 +28°C° 0 mm 5 m/S 723 mmHg 76%
    09:00 +28°C° 0 mm 4 m/S 723 mmHg 74%
    10:00 +30°C° 0 mm 4 m/S 723 mmHg 68%
    11:00 +33°C° 0 mm 4 m/S 723 mmHg 61%
    12:00 +35°C° 0 mm 4 m/S 723 mmHg 54%
    13:00 +36°C° 0 mm 4 m/S 722 mmHg 51%
    14:00 +36°C° 0 mm 3 m/S 722 mmHg 48%
    15:00 +37°C° 0 mm 3 m/S 721 mmHg 45%
    16:00 +36°C° 0 mm 2 m/S 722 mmHg 48%
    17:00 +36°C° 0 mm 2 m/S 722 mmHg 50%
    18:00 +34°C° 0 mm 1 m/S 722 mmHg 53%
    19:00 +33°C° 0 mm 1 m/S 722 mmHg 54%
    20:00 +33°C° 0 mm 1 m/S 723 mmHg 55%
    21:00 +32°C° 0 mm 1 m/S 723 mmHg 56%
    22:00 +32°C° 0 mm 1 m/S 723 mmHg 57%
    23:00 +32°C° 0 mm 1 m/S 723 mmHg 58%
    Mehr zeigen